Piloten Info

Wichtige Hinweise:

  • Tower Frequenz 122,330 kHz - keine Landung ohne Funkkontakt
  • PPR Betrieb
  • Temporäre Hindernisse (Baukräne) nahe dem Flugplatz durch Bauarbeiten entlang der Nürnberger Straße (Östliche Seite).
  • Starts auf RWY 09 sind nicht gestattet. Start generell auf RWY 27. Bei Planung Rückenwinde berücksichtigen!
  • Bei Anflügen auf RWY 27 sind Hindernisse vorhanden, aus diesem Grund die versetzte Schwelle27!
  • Der Flugverein Neumarkt führt seine Starts generell auf RWY 27 und Landungen auf RWY09 durch.
  • Es besteht keine Tankmöglichkeit.

Diese Hinweis sind als Ergänzung / Hilfe zur regulären Flugplanung gedacht.

Auszüge aus AIP VFR ohne Gewähr - es gelten die offiziellen Veröffentlichungen.




Wind Infos (info ohne Gewähr - nicht geeicht)

Wind Speed
Wind Direction


METAR Informationen der nächstgelegenen Flughäfen


EDDN / Flughafen Nürnberg „Albrecht Dürer“

EDDN 290850Z AUTO 10006KT 3600 -DZ BR OVC005 04/04 Q1016 TEMPO 6000

ETIC / Fliegerhorst Grafenwöhr AAF

ETIC 290855Z AUTO 00000KT 6000 -DZ BR BKN005 OVC010 03/02 A3000 RMK AO2 DZB31 SLP178 P0000 60000 T00280024 52011 FZRANO $

ETIH / Fliegerhorst Hohenfels AAF

ETIH 290820Z AUTO 11003KT 5000 HZ OVC005 03/00 A3001 RMK AO2 SLP184 $